Weather History for Oskaloosa, IA

Change the Weather History Date:

Sunday, October 6, 2013

  Actual Average (KOTM) Record (KOTM)
Temperature  
Mean Temperature 44 °F 56 °F  
Max Temperature 48 °F 67 °F 92 °F (1963)
Min Temperature 40 °F 44 °F 22 °F (1935)
Degree Days  
Heating Degree Days 21 10  
Month to date heating degree days 53  
Since 1 July heating degree days 174  
Cooling Degree Days 0 1  
Month to date cooling degree days 6  
Year to date cooling degree days 933  
Moisture  
Dew Point 40 °F    
Average Humidity 84    
Maximum Humidity 93    
Minimum Humidity 68    
Precipitation  
Precipitation 0.06 in 0.09 in 1.94 in (1927)
Month to date precipitation 0.59  
Year to date precipitation 31.08  
Sea Level Pressure  
Sea Level Pressure 29.80 in    
Wind  
Wind Speed 6 mph (WSW)    
Max Wind Speed 14 mph    
Max Gust Speed 18 mph    
Visibility 10 miles    
Events Rain    
T = Trace of Precipitation, MM = Missing Value Source: NWS Daily Summary

Daily Weather History Graph

Daily Weather History Graph

Search for Another Location

Airport:

Trip Planner

Search our weather history database for the weather conditions in past years. The results will help you decide how hot, cold, wet, or windy it might be!

Date:

Astronomy

Oct. 06, 2013 Rise Set
Actual Time 7:12 AM CDT 6:43 PM CDT
Civil Twilight 6:44 AM CDT 7:10 PM CDT
Nautical Twilight 6:12 AM CDT 7:42 PM CDT
Astronomical Twilight 5:40 AM CDT 8:14 PM CDT
Moon 8:58 AM CDT (10/6) 7:41 PM CDT (10/6)
Length of Visible Light 12h 26m
Length of Day
11h 30m
Waxing Crescent, 3% of the Moon is Illuminated
Oct 6
Waxing Crescent
Oct 11
First Quarter
Oct 18
Full
Oct 26
Last Quarter
Nov 3
New

Hourly Weather History & Observations

Time (CDT) Temp. Windchill Dew Point Humidity Pressure Visibility Wind Dir Wind Speed Gust Speed Precip Events Conditions
12:15 AM 41.7 °F 38.8 °F 37.9 °F 86% 29.82 in 10.0 mi South 4.6 mph - N/A   Mostly Cloudy
12:35 AM 41.9 °F 39.0 °F 37.8 °F 85% 29.81 in 10.0 mi SSW 4.6 mph - N/A   Scattered Clouds
12:55 AM 42.3 °F 38.6 °F 37.9 °F 85% 29.81 in 10.0 mi SSW 5.8 mph - N/A   Clear
1:15 AM 41.5 °F 39.6 °F 37.4 °F 85% 29.81 in 10.0 mi SSW 3.5 mph - N/A   Clear
1:35 AM 40.3 °F - 37.2 °F 89% 29.80 in 10.0 mi Calm Calm - N/A   Clear
1:55 AM 40.6 °F 38.6 °F 37.8 °F 89% 29.80 in 10.0 mi SSW 3.5 mph - N/A   Scattered Clouds
2:15 AM 41.5 °F 38.6 °F 38.7 °F 89% 29.80 in 10.0 mi SSW 4.6 mph - N/A   Overcast
2:35 AM 41.5 °F 37.8 °F 37.9 °F 87% 29.79 in 10.0 mi SW 5.8 mph - N/A   Mostly Cloudy
2:55 AM 41.2 °F 37.3 °F 37.0 °F 85% 29.78 in 10.0 mi SW 5.8 mph - N/A   Scattered Clouds
3:15 AM 42.3 °F 38.6 °F 37.6 °F 83% 29.78 in 10.0 mi SW 5.8 mph - N/A   Mostly Cloudy
3:35 AM 41.7 °F 38.0 °F 37.2 °F 84% 29.77 in 10.0 mi SSW 5.8 mph - N/A   Overcast
3:55 AM 42.1 °F 39.2 °F 37.6 °F 84% 29.78 in 10.0 mi SSW 4.6 mph - N/A   Overcast
4:15 AM 41.9 °F 38.2 °F 37.0 °F 83% 29.78 in 10.0 mi SW 5.8 mph - N/A   Mostly Cloudy
4:35 AM 41.7 °F 38.8 °F 36.9 °F 83% 29.78 in 10.0 mi SSW 4.6 mph - N/A   Mostly Cloudy
4:55 AM 42.1 °F 39.2 °F 37.2 °F 83% 29.77 in 10.0 mi SSW 4.6 mph - N/A   Overcast
5:15 AM 41.9 °F 38.2 °F 37.4 °F 84% 29.77 in 10.0 mi SSW 5.8 mph - N/A   Overcast
5:35 AM 42.1 °F 39.2 °F 37.2 °F 83% 29.77 in 10.0 mi SSW 4.6 mph - N/A   Overcast
5:55 AM 42.3 °F 38.6 °F 36.9 °F 81% 29.77 in 10.0 mi SSW 5.8 mph - N/A   Overcast
6:15 AM 42.3 °F 39.4 °F 36.7 °F 81% 29.78 in 10.0 mi SSW 4.6 mph - N/A   Overcast
6:35 AM 42.3 °F 40.5 °F 37.0 °F 82% 29.78 in 10.0 mi SSW 3.5 mph - N/A   Overcast
6:55 AM 42.1 °F 39.2 °F 37.0 °F 82% 29.77 in 10.0 mi SSW 4.6 mph - N/A   Overcast
7:15 AM 42.1 °F 40.2 °F 37.0 °F 82% 29.77 in 10.0 mi SSW 3.5 mph - N/A   Overcast
7:35 AM 42.3 °F 39.4 °F 36.9 °F 81% 29.78 in 10.0 mi SSW 4.6 mph - N/A   Overcast
7:55 AM 42.3 °F 39.4 °F 37.0 °F 82% 29.78 in 10.0 mi SSW 4.6 mph - N/A   Overcast
8:15 AM 43.0 °F 39.5 °F 37.6 °F 81% 29.78 in 10.0 mi WSW 5.8 mph - N/A   Overcast
8:35 AM 43.7 °F 40.3 °F 37.4 °F 78% 29.78 in 10.0 mi West 5.8 mph - N/A   Overcast
8:55 AM 44.1 °F 39.0 °F 37.4 °F 77% 29.78 in 10.0 mi West 9.2 mph - N/A   Overcast
9:15 AM 44.2 °F 40.3 °F 37.4 °F 77% 29.78 in 10.0 mi West 6.9 mph - N/A   Overcast
9:35 AM 45.7 °F 41.0 °F 37.2 °F 72% 29.77 in 10.0 mi WNW 9.2 mph - N/A   Overcast
9:55 AM 45.3 °F 40.1 °F 36.5 °F 71% 29.78 in 10.0 mi West 10.4 mph - N/A   Overcast
10:15 AM 46.0 °F 41.4 °F 38.3 °F 74% 29.78 in 10.0 mi West 9.2 mph - N/A Rain Light Rain
10:35 AM 46.6 °F - 37.9 °F 72% 29.79 in 10.0 mi WSW 8.1 mph - N/A   Overcast
10:55 AM 47.7 °F - 37.6 °F 68% 29.79 in 10.0 mi West 8.1 mph - N/A   Overcast
11:15 AM 47.5 °F - 37.6 °F 69% 29.79 in 10.0 mi WSW 8.1 mph - N/A   Overcast
11:35 AM 47.3 °F - 37.0 °F 68% 29.79 in 10.0 mi WSW 6.9 mph - N/A   Overcast
11:55 AM 46.0 °F 41.0 °F 38.7 °F 75% 29.80 in 5.0 mi West 10.4 mph 17.3 mph N/A Rain Heavy Rain
12:15 PM 44.8 °F 39.0 °F 41.0 °F 87% 29.80 in 7.0 mi West 11.5 mph - N/A Rain Light Rain
12:35 PM 44.6 °F 39.7 °F 40.3 °F 85% 29.80 in 7.0 mi WNW 9.2 mph - 0.01 in Rain Rain
12:55 PM 44.8 °F 39.9 °F 41.4 °F 88% 29.79 in 7.0 mi WNW 9.2 mph - 0.01 in Rain Rain
1:15 PM 45.3 °F 41.1 °F 40.8 °F 84% 29.78 in 10.0 mi West 8.1 mph - N/A   Overcast
1:35 PM 46.8 °F - 40.5 °F 79% 29.77 in 10.0 mi West 9.2 mph - N/A   Overcast
1:55 PM 47.3 °F - 40.6 °F 78% 29.77 in 10.0 mi West 9.2 mph - N/A   Overcast
2:15 PM 46.4 °F 41.1 °F 39.7 °F 78% 29.77 in 10.0 mi West 11.5 mph - N/A   Overcast
2:35 PM 46.4 °F 40.7 °F 39.4 °F 77% 29.77 in 10.0 mi West 12.7 mph 16.1 mph N/A   Overcast
2:55 PM 46.6 °F - 39.4 °F 76% 29.77 in 10.0 mi West 12.7 mph 16.1 mph N/A   Overcast
3:15 PM 46.0 °F 41.4 °F 40.6 °F 81% 29.77 in 10.0 mi West 9.2 mph - N/A Rain Light Rain
3:35 PM 46.6 °F - 41.9 °F 84% 29.77 in 10.0 mi West 9.2 mph - N/A Rain Light Rain
3:55 PM 46.4 °F 41.9 °F 41.9 °F 84% 29.77 in 10.0 mi West 9.2 mph - N/A Rain Rain
4:15 PM 45.7 °F 41.5 °F 41.9 °F 87% 29.77 in 10.0 mi West 8.1 mph - 0.01 in   Drizzle
4:35 PM 45.7 °F 42.0 °F 42.3 °F 88% 29.78 in 10.0 mi WSW 6.9 mph - 0.01 in Rain Light Rain
4:55 PM 45.7 °F 42.0 °F 42.8 °F 90% 29.78 in 10.0 mi WSW 6.9 mph - 0.01 in Rain Light Rain
5:15 PM 45.7 °F 42.7 °F 43.0 °F 90% 29.79 in 10.0 mi WSW 5.8 mph - 0.01 in Rain Light Rain
5:35 PM 45.5 °F 43.2 °F 43.0 °F 91% 29.79 in 7.0 mi WSW 4.6 mph - 0.03 in Rain Rain
5:55 PM 45.5 °F 42.5 °F 43.2 °F 92% 29.80 in 10.0 mi WSW 5.8 mph - 0.04 in Rain Light Rain
6:15 PM 45.7 °F 43.4 °F 43.3 °F 92% 29.80 in 10.0 mi West 4.6 mph - N/A   Overcast
6:35 PM 45.9 °F 44.6 °F 43.7 °F 92% 29.80 in 10.0 mi WNW 3.5 mph - N/A Rain Light Rain
6:55 PM 45.9 °F 43.6 °F 43.7 °F 92% 29.82 in 10.0 mi West 4.6 mph - N/A   Overcast
7:15 PM 46.0 °F 43.1 °F 43.5 °F 91% 29.82 in 10.0 mi WNW 5.8 mph - N/A   Overcast
7:35 PM 45.7 °F 41.5 °F 43.3 °F 92% 29.82 in 10.0 mi WNW 8.1 mph - N/A   Overcast
7:55 PM 45.7 °F 42.0 °F 43.3 °F 92% 29.82 in 10.0 mi West 6.9 mph - N/A   Overcast
8:15 PM 45.7 °F 42.7 °F 43.5 °F 92% 29.83 in 10.0 mi WNW 5.8 mph - N/A   Overcast
8:35 PM 45.7 °F 42.7 °F 43.7 °F 93% 29.84 in 10.0 mi WNW 5.8 mph - N/A   Overcast
8:55 PM 45.3 °F 42.3 °F 43.3 °F 93% 29.85 in 10.0 mi WNW 5.8 mph - N/A   Overcast
9:15 PM 45.3 °F 41.6 °F 43.2 °F 92% 29.84 in 10.0 mi West 6.9 mph - N/A   Mostly Cloudy
9:35 PM 45.7 °F 42.7 °F 43.9 °F 93% 29.85 in 10.0 mi WNW 5.8 mph - N/A   Overcast
9:55 PM 46.4 °F 42.9 °F 44.6 °F 93% 29.86 in 10.0 mi WNW 6.9 mph - N/A   Overcast
10:15 PM 46.8 °F - 45.0 °F 93% 29.86 in 7.0 mi WNW 9.2 mph 16.1 mph N/A   Overcast
10:35 PM 47.5 °F - 45.5 °F 93% 29.87 in 10.0 mi NW 9.2 mph 18.4 mph N/A   Overcast
10:55 PM 47.8 °F - 45.7 °F 92% 29.87 in 10.0 mi NW 9.2 mph - N/A   Overcast
11:15 PM 48.2 °F - 45.7 °F 91% 29.87 in 10.0 mi WNW 9.2 mph - N/A   Overcast
11:35 PM 48.4 °F - 46.0 °F 92% 29.88 in 10.0 mi NW 10.4 mph - N/A   Overcast
11:55 PM 48.4 °F - 45.9 °F 91% 29.88 in 10.0 mi WNW 13.8 mph - N/A   Overcast